Location: Clyde
(45.1830°S, 169.3170°E)
Time: 09:48:30
(UTC+12:00)

ATLAS CENTAUR R/B - Pass Details

Date: 14 May 2021
Orbit: 472 x 671 km, 64.6° (Epoch: 13 June)

Event Time Altitude Azimuth Distance (km) Brightness Sun altitude
Rises 20:43:59 0° 220° (SW) 2,843 5.6 -35.0°
Reaches altitude 10° 20:46:21 10° 224° (SW) 1,900 4.6 -35.4°
Enters shadow 20:46:38 12° 224° (SW) 1,791 4.4 -35.5°
